Piloten Info

Wichtige Hinweise:

  • Neue Tower Frequenz 122,330 kHz - keine Landung ohne Funkkontakt
  • PPR Betrieb
  • Temporäre Hindernisse (Baukräne) nahe dem Flugplatz durch Bauarbeiten entlang der Nürnberger Straße (Östliche Seite).
  • Starts auf RWY 09 sind nicht gestattet. Start generell auf RWY 27. Bei Planung Rückenwinde berücksichtigen!
  • Bei Anflügen auf RWY 27 sind Hindernisse vorhanden, aus diesem Grund die versetzte Schwelle27!
  • Der Flugverein Neumarkt führt seine Starts generell auf RWY 27 und Landungen auf RWY09 durch.
  • Es besteht keine Tankmöglichkeit.

Diese Hinweis sind als Ergänzung / Hilfe zur regulären Flugplanung gedacht.

Auszüge aus AIP VFR ohne Gewähr - es gelten die offiziellen Veröffentlichungen.







METAR Informationen der nächstgelegenen Flughäfen


EDDN / Flughafen Nürnberg „Albrecht Dürer“

EDDN 100620Z 28009KT 9999 FEW032 BKN048 03/00 Q1023 NOSIG

ETIC / Fliegerhorst Grafenwöhr AAF

ETIC 100556Z AUTO 27005KT 9999 OVC041 02/01 A3015 RMK AO2 SLP229 60002 T00160010 10042 20010 52034 $

ETIH / Fliegerhorst Hohenfels AAF

ETIH 100556Z AUTO 29004KT 9999 CLR 01/M01 A3019 RMK AO2 SLP246 60006 T00101014 10044 20010 52038 $